230  
ASUS43 KJKL 131510  
RWRJKL  
 
EAST KENTUCKY HOURLY WEATHER ROUNDUP  
NATIONAL WEATHER SERVICE JACKSON KY  
1100 AM EDT MON JUL 13 2020  
 
NOTE: "FAIR" INDICATES FEW OR NO CLOUDS BELOW 12,000 FEET WITH  
NO SIGNIFICANT WEATHER AND/OR S TO VISIBILITY
.  
 
* THESE REPORTS ARE NOT UNDER NWS QUALITY CONTROL AND MAY NOT  
REPORT WEATHER SUCH AS PRECIPITATION AND FOG.
 
 
KYZ079-080-083-085-087-088-110-112-115-119-120-131600   
..EASTERN KENTUCKY
 
 
 
CITY SKY/WX TMP DP RH WIND PRES REMARKS
 
JACKSON CLOUDY 70 68 93 CALM 29.98R  
LONDON PTSUNNY 72 65 78 VRB3 29.98R  
SOMERSET* SUNNY 75 61 60 CALM 29.99R  
MONTICELLO* SUNNY 79 67 66 N15 30.00R  
WILLIAMSBURG* FAIR 73 68 83 CALM 29.99R  
MIDDLESBORO* PTSUNNY 78 66 66 N3 29.97S  
HARLAN APT* PTSUNNY 76 64 66 CALM 29.98S  
PIKE CO APT* CLOUDY 65 65 100 CALM 29.99S FOG  
BIG SANDY APT* CLOUDY 69 69 100 CALM 29.99R  
ASHLAND* SUNNY 76 69 79 CALM 29.96R  

 
 
KYZ035-036-041-042-044-050-067-078-099-131600   
..CENTRAL KENTUCKY
 
 
 
CITY SKY/WX TMP DP RH WIND PRES REMARKS
 
MT STERLING* SUNNY 73 64 73 NE5 29.99S  
FLEMING/MASON* SUNNY 76 64 64 NE6 29.99R  
DANVILLE* SUNNY 75 66 73 N6 30.00R  
RICHMOND* FAIR 77 68 73 W5 29.97R  
LEXINGTON SUNNY 77 66 68 N5 29.98R  
FRANKFORT SUNNY 78 63 59 VRB3 29.97R  
LOUISVILLE MOSUNNY 79 64 60 CALM 29.96F  
LEBANON* FAIR 75 72 88 CALM 29.98R  
GLASGOW* SUNNY 78 68 70 NE5 29.97S  
BOWLING GREEN SUNNY 81 68 64 E6 29.96S  

 
 
KYZ091>093-OHZ055-061-077-WVZ005-015-034-035-042-131600   
..SOUTHERN OHIO/WEST VIRGINIA
 
 
 
CITY SKY/WX TMP DP RH WIND PRES REMARKS
 
COVINGTON MOSUNNY 76 64 66 W6 29.97R  
COLUMBUS MOSUNNY 79 65 62 CALM 29.94R  
DAYTON MOSUNNY 76 66 71 N8 29.98R  
WILMINGTON PTSUNNY 77 67 71 MISG 29.95S  
HUNTINGTON MOSUNNY 75 66 73 CALM 29.95R  
CHARLESTON PTSUNNY 71 64 78 CALM 29.96R  
PINEVILLE* CLOUDY 70 65 85 MISG 30.04R  
BECKLEY CLOUDY 68 63 84 N7 30.01R  
BLUEFIELD SUNNY 70 61 73 W5 30.02R  
LOGAN CO APT* CLOUDY 66 66 100 CALM 29.99R  

 
 
VAZ002-007-008-TNZ017-027-036-066-071-131600   
..SOUTHWEST VIRGINIA/EAST TENNESSEE
 
 
 
CITY SKY/WX TMP DP RH WIND PRES REMARKS
 
WISE* MOSUNNY 72 61 68 NW6 30.03S  
JONESVILLE* N/A 79 63 57 CALM 29.98S  
BRISTOL MOSUNNY 77 64 64 CALM 29.96S  
MORRISTOWN* MOSUNNY 81 68 65 CALM 29.94S  
SEVIERVILLE* SUNNY 82 66 57 CALM 29.93F  
KNOXVILLE MOSUNNY 79 66 64 CALM 29.93S  
LAFOLLETTE* SUNNY 79 66 65 NE7 29.98S  
OAK RIDGE MOSUNNY 82 67 60 CALM 29.95S  
CROSSVILLE MOSUNNY 78 65 63 NE8 30.00R  
NASHVILLE MOSUNNY 83 67 58 VRB3 29.96R  

 
   
..KEY TO REMARKS
 
 
VSB - VISIBILITY IN MILES  
WCI - WIND CHILL INDEX  
HX - HEAT INDEX  
 

 
 
 
CLICK HERE TO GO TO PREVIOUS BULLETINS.

The Nexlab KY Page Main Text Page